Regional Weather Roundup
Issued by NWS Austin/San Antonio, TX

Home | Current Version | Previous Version | Text Only | Print | Product List | Glossary On
Versions: 1 2 3 4 5 6 7 8 9 10 11 12 13 14 15 16 17 18 19 20 21 22 23 24 25 26 27 28 29 30 31 32 33 34 35 36 37 38 39 40 41 42 43 44 45 46 47 48 49 50
000
ASUS44 KEWX 010802
RWREWX
SOUTH TEXAS REGIONAL WEATHER ROUNDUP
NATIONAL WEATHER SERVICE AUSTIN/SAN ANTONIO TX
200 AM CST MON MAR 01 2021

NOTE: "FAIR" INDICATED FEW OR NO CLOUDS BELOW 12,000 FEET WITH NO
SIGNIFICANT WEATHER AND/OR OBSTRUCTIONS TO VISIBILITY.

* - THESE STATIONS ARE NOT NWS OR FAA STATIONS...AND ARE NOT SUBJECT
    TO NWS AND FAA QUALITY CONTROL.

TXZ171-172-183>190-010900-
TEXAS HILL COUNTRY AND EDWARDS PLATEAU

CITY           SKY/WX    TMP DP  RH WIND       PRES   REMARKS
JUNCTION       CLOUDY    53  30  41 NE10      30.05R
*LLANO         CLOUDY    55  32  41 NE10G21   30.04R
BURNET         CLOUDY    54  35  48 NE10G21   30.05R
*HORSESHOE BAY CLOUDY    55  37  51 N6        30.04R
*LAGO VISTA    LGT RAIN  53  41  63 NE12G18   30.01R
*KERRVILLE     CLOUDY    54  40  59 N10       29.99S
*FREDERICKSBRG CLOUDY    52  35  52 NE9       30.01S
*ROCKSPRINGS   CLOUDY    52  34  50 NE15G25   30.02R
*BOERNE        CLOUDY    52  45  76 N9        29.96S
*CASTROVILLE   CLOUDY    62  53  73 NE7       29.95R
HONDO          CLOUDY    61  49  64 NE16      29.92R
*UVALDE        CLOUDY    62  56  79 NE16      29.93R
DEL RIO        CLOUDY    66  47  50 NE13G20   29.90S
*LAUGHLIN AFB  NOT AVBL
*SPOFFORD      CLOUDY    64  51  62 NE7       29.84R
*EAGLE PASS    NOT AVBL
CARRIZO SPRGS  MOCLDY    64  64 100 E3        29.84F FOG
*FAITH RANCH   PTCLDY    68  64  88 NE8       29.86S FOG
$$

TXZ173-191>194-202-209-217>225-228-010900-
CENTRAL AND SOUTH CENTRAL TEXAS

CITY           SKY/WX    TMP DP  RH WIND       PRES   REMARKS
GEORGETOWN     CLOUDY    54  41  61 N8        30.03R
*TAYLOR        CLOUDY    54  45  69 N15       30.00R
AUSTIN/BERGSTM CLOUDY    57  46  66 N20G29    29.97S
AUSTIN/MABRY   CLOUDY    56  43  61 N8        30.00R
*PFLUGERVILLE  CLOUDY    55  45  67 N16       30.00R
SAN MARCOS     CLOUDY    57  49  74 N20       29.97R
NEW BRAUNFELS  CLOUDY    59  48  67 NE13G24   29.93R
*RANDOLPH AFB  DRIZZLE   58  49  73 NE14G22   29.93R
*SEGUIN        NOT AVBL
SAN ANTONIO    CLOUDY    58  48  69 N17G26    29.95R
STINSON FIELD  CLOUDY    58  53  84 NE14      29.91R
*KELLY FIELD   CLOUDY    59  48  67 NE15G22   29.91R
*PLEASANTON    DRIZZLE   62  61  95 N12       29.91R
*KENEDY        CLOUDY    71  70  97 NE6       29.90R FOG
*LA GRANGE     DRIZZLE   58  58 100 N6        29.93S
*GIDDINGS      RAIN      55  51  86 N8G16     29.96S
*GONZALES      NOT AVBL
$$

TXZ163>164-176>182-195>201-210>213-226-227-235-010900-
SOUTHEAST TEXAS

CITY           SKY/WX    TMP DP  RH WIND       PRES   REMARKS
COLLEGE STN    LGT RAIN  56  53  90 N14       29.96R
*BRYAN         CLOUDY    55  55 100 N8        29.98R
*CALDWELL      LGT RAIN  57  52  84 N9G20     29.97R
*CROCKETT      NOT AVBL
*BRENHAM       DRIZZLE   59  58  97 N9        29.95S
HUNTSVILLE     LGT RAIN  62  59  90 VRB6      29.94R
CONROE         CLOUDY    70  68  93 SE5       29.92S FOG
HOUSTON BUSH   CLOUDY    72  69  90 S8        29.91S
HOUSTON HOBBY  CLOUDY    72  69  90 S6        29.91S FOG
*HOUSTON SW AP FOG       70  68  95 CALM      29.92S VSB 3/4
PEARLAND       CLOUDY    71  69  93 S6        29.93S FOG
HOUSTON HOOKS  CLOUDY    71  68  90 CALM      29.91S
ELLINGTON FLD  CLOUDY    72  70  94 SE7       29.91  FOG
SUGAR LAND     CLOUDY    72  69  90 SE6       29.91R
*HOUSTON EXEC  CLOUDY    72  72 100 S8          N/A  FOG
*CLEVELAND MUN CLOUDY    69  69  99 S3        29.93S FOG
*WHARTON       CLOUDY    71  67  89 SE7       29.92R
*COLUMBUS      CLOUDY    71  69  95 CALM      29.92R
*EAGLE LAKE    CLOUDY    71  69  93 S5        29.90S
$$

TXZ214>216-236>238-010900-
THE UPPER TEXAS COAST

CITY           SKY/WX    TMP DP  RH WIND       PRES   REMARKS
*ORANGE        FOG       69  68  96 S6        29.95F VSB 3/4
PORT ARTHUR    CLOUDY    68  68 100 S9        29.92F FOG
GALVESTON      FOG       66  64  93 SE6       29.92F VSB 3/4
ANGLETON       CLOUDY    72  69  90 S9        29.90F
*BAY CITY      CLOUDY    70  69  96 S7        29.90F FOG
PALACIOS       CLOUDY    70  70 100 SE12      29.89S
$$

TXZ229>234-239>247-010900-
TEXAS COASTAL BEND AND RIO GRANDE PLAINS

CITY           SKY/WX    TMP DP  RH WIND       PRES   REMARKS
VICTORIA       LGT RAIN  69  68  96 SE5       29.90R FOG
*BEEVILLE      FOG       72  72 100 SE6       29.87R VSB 1
ROCKPORT       CLOUDY    68  68 100 SE9       29.87S FOG
*PORT ARANSAS  CLOUDY    65  65  99 SE10      29.88R FOG
*PORT LAVACA   CLOUDY    70  64  83 E5        29.89S FOG
*INGLESIDE     CLOUDY    71  70  96 S10       29.86R
CORPUS CHRISTI DRIZZLE   71  69  93 S10       29.86R FOG
CORPUS NAS     CLOUDY    71  68  90 SE13      29.86R FOG
*ROBSTOWN      CLOUDY    74  72  95 S9        29.86R FOG
ALICE          CLOUDY    72  70  93 SE5       29.85R
KINGSVILLE NAS CLOUDY    72  68  87 SE10      29.84S
COTULLA        CLOUDY    74  69  85 E10       29.85S
LAREDO         CLOUDY    74  69  85 SE8       29.83S
$$

TXZ248>255-010900-
DEEP SOUTH TEXAS

CITY           SKY/WX    TMP DP  RH WIND       PRES   REMARKS
BROWNSVILLE    CLOUDY    74  68  81 S13       29.82S
PORT ISABEL    CLOUDY    73  67  81 S13       29.82S
HARLINGEN      CLOUDY    75  69  81 S14G25    29.82R
*HEBBRONVILLE  MOCLDY    72  63  72 SE6       29.85S HAZE
MCALLEN        CLOUDY    75  68  78 SE16      29.82R
*WESLACO       CLOUDY    74  67  79 S10       29.82R
FALFURRIAS     CLOUDY    70  68  92 CALM      29.84R
EDINBURG       CLOUDY    75  69  83 SE10      29.83S
*ZAPATA        CLEAR     74  70  88 E6        29.83F FOG
$$

TXZ213>215-236>238-242>244-246-247-251-254-255-010900-
CMAN STATIONS

STATION/POSITION TIME  TEMP    WIND        PRES    WAVE
                       AIR SEA DIR/SP/G            HT/PER
                 (UTC) (F)     (DEG/KT/KT) (MB)    (FT/S)
SEA RIM ST PARK  0700   65     150/  7/  9 1013.7
NORTH JETTY/GLS  0724   62 57  140/  7/  8 1012.0
EAGLE POINT      0724   66 62  150/  8/  8 1012.6
MORGANS POINT    0724   64 62  170/  5/  7 1013.2
PORT O`CONNOR    0724   63 67  120/  8/ 10 1011.6
PORT ARANSAS     0700   63 58  110/ 10/ 10 1010.7
MALAQUITE BEACH  0724   64     110/ 11/ 12   N/A
BAFFIN BAY       0724   67 72  120/ 11/ 14 1010.1
PORT ISABEL      0724   69 63  150/  9/ 13 1011.7
$$



USA.gov is the U.S. government's official web portal to all federal, state and local government web resources and services.